Preview of NWS' New Version of Forecast
This preview is not operational and should not be used for support decisions.

Regional Weather Roundup (RWR)

Issued by National Weather Service (NWS)

                            
000
ASPQ40 PGUM 182310
RWRPQ 
WEATHER ROUNDUP FOR THE MARIANAS AND MICRONESIA
NATIONAL WEATHER SERVICE TIYAN GU
900 AM CHST TUE FEB 19 2019

GUZ001>004-190000-
MARIANA ISLANDS-
  
CITY           SKY/WX    TMP DP  RH WIND       PRES   REMARKS
GUAM AIRPORT   LGT RAIN  75  75 100 NE16      30.07R                  
ANDERSEN AFB   CLOUDY    75  72  88 NE24G30   30.07R                  
ROTA AIRPORT   LGT RAIN  77  68  73 NE16      30.05R                  
TINIAN AP      PTSUNNY  N/A N/A N/A E21       30.06R                  
SAIPAN AP      MOSUNNY   81  70  69 NE21G26   30.07R                  

$$

PMZ161-190000-
REPUBLIC OF PALAU-
  
CITY           SKY/WX    TMP DP  RH WIND       PRES   REMARKS
KOROR AP       PTSUNNY   81  72  74 NE9G17    29.96R                  
KOROR WSO      NOT AVBL                                               

$$

PMZ171>174-190000-
FEDERATED STATES OF MICRONESIA-
  
CITY           SKY/WX    TMP DP  RH WIND       PRES   REMARKS
YAP AIRPORT    PTSUNNY   81  75  83 NE10      29.97R                  
CHUUK AP       CLOUDY    84  77  79 NE12G17   29.87R HX  94           
POHNPEI AP     LGT RAIN  79  77  94 NE12      29.78R                  
POHNPEI WSO    LGT RAIN  81  77  89 NE10      29.83S                  
KOSRAE AP      CLOUDY    82  79  89 E12       29.73R HX  93           

$$

PMZ181-190000-
REPUBLIC OF THE MARSHALL ISLANDS-
  
CITY           SKY/WX    TMP DP  RH WIND       PRES   REMARKS
KWAJALEIN AP   PTSUNNY   81  79  94 E22G29    29.89S                  
MAJURO AP      PTSUNNY   84  77  79 NE26      29.87S HX  94           
MAJURO WSO     PTSUNNY   84  75  74 E17       29.87S HX  92           

$$